Total_Precipitation_Accumulation
0.34 0.31 0.29 0.26 0.23 0.20 0.18 0.20 0.23 0.24 0.23 0.20 0.15 0.13 0.12 0.12 0.10 0.09 0.08 0.09 0.09 0.09 0.11 0.14 0.20 0.22 0.11 0.06 0.01 0.00 0.00 0.00 0.00 0.00 0.00 0.00 0.00 0.00 0.00 0.00 0.00 0.00 0.00 0.00 0.00 0.01 0.00
0.39 0.33 0.29 0.28 0.28 0.26 0.25 0.23 0.21 0.20 0.20 0.19 0.20 0.17 0.15 0.14 0.14 0.13 0.11 0.09 0.10 0.12 0.15 0.21 0.36 0.45 0.25 0.13 0.00 0.00 0.00 0.00 0.00 0.00 0.00 0.00 0.00 0.00 0.00 0.00 0.00 0.00 0.00 0.00 0.00 0.00 0.00
0.50 0.44 0.38 0.38 0.35 0.32 0.31 0.30 0.30 0.26 0.22 0.18 0.18 0.19 0.20 0.18 0.17 0.17 0.15 0.12 0.10 0.12 0.17 0.28 0.56 0.76 0.59 0.16 0.00 0.00 0.00 0.00 0.00 0.00 0.00 0.00 0.00 0.00 0.00 0.00 0.00 0.00 0.00 0.00 0.04 0.02 0.00
0.50 0.50 0.48 0.46 0.40 0.38 0.33 0.33 0.36 0.36 0.33 0.27 0.23 0.22 0.22 0.23 0.22 0.20 0.19 0.17 0.18 0.17 0.24 0.37 0.68 0.87 0.63 0.04 0.00 0.00 0.00 0.00 0.00 0.00 0.00 0.00 0.00 0.00 0.00 0.00 0.00 0.00 0.00 0.00 0.05 0.01 0.00
0.62 0.57 0.54 0.49 0.49 0.46 0.41 0.37 0.38 0.37 0.39 0.47 0.44 0.38 0.33 0.33 0.32 0.31 0.33 0.33 0.29 0.33 0.53 0.86 1.12 1.12 0.51 0.02 0.00 0.00 0.02 0.03 0.02 0.01 0.00 0.00 0.01 0.01 0.00 0.01 0.00 0.00 0.00 0.00 0.00 0.00 0.00
0.78 0.69 0.63 0.58 0.54 0.49 0.52 0.53 0.53 0.49 0.43 0.41 0.49 0.59 0.56 0.53 0.56 0.52 0.45 0.44 0.47 0.71 0.95 1.67 2.11 1.90 0.58 0.02 0.02 0.07 0.11 0.12 0.08 0.14 0.09 0.01 0.04 0.05 0.02 0.02 0.02 0.00 0.00 0.00 0.00 0.00 0.00
1.03 0.81 0.71 0.68 0.63 0.62 0.63 0.63 0.60 0.54 0.57 0.61 0.64 0.65 0.77 0.85 0.93 0.93 0.89 1.02 1.13 1.19 1.16 1.13 1.32 1.16 0.37 0.15 0.18 0.16 0.23 0.59 0.41 0.27 0.39 0.14 0.24 0.31 0.09 0.04 0.02 0.01 0.00 0.00 0.00 0.00 0.00
1.50 1.40 1.31 1.15 0.97 0.90 0.84 0.82 0.80 0.74 0.75 0.69 0.69 0.86 0.93 1.06 1.47 1.70 1.70 1.39 0.73 0.43 0.54 0.22 0.20 0.40 0.32 0.26 0.46 0.19 0.27 1.04 1.40 0.94 0.42 0.37 0.49 0.31 0.16 0.11 0.06 0.04 0.02 0.00 0.00 0.00 0.00
2.18 2.18 2.06 1.86 1.68 1.52 1.34 1.11 0.95 0.83 0.75 0.76 0.82 0.90 1.12 1.57 1.90 2.27 1.86 0.96 0.26 0.42 1.27 0.54 0.06 0.05 0.06 0.25 0.49 0.22 0.29 0.79 1.20 1.05 0.49 0.53 0.46 0.20 0.18 0.21 0.20 0.10 0.06 0.02 0.00 0.00 0.00
2.23 2.11 2.10 2.07 1.93 1.71 1.43 1.23 1.07 0.93 0.90 0.86 0.84 1.00 1.44 2.19 3.08 1.95 1.61 0.55 0.40 1.25 3.54 1.68 0.20 0.04 0.01 0.19 0.61 0.15 0.28 0.59 0.99 0.92 0.49 0.51 0.29 0.15 0.26 0.32 0.27 0.22 0.02 0.01 0.01 0.04 0.07
2.20 2.18 2.14 2.03 1.95 1.79 1.49 1.25 1.10 1.06 0.97 0.91 0.96 1.13 1.67 2.19 1.92 1.46 0.78 0.46 1.21 3.31 6.29 1.72 0.11 0.02 0.01 0.08 0.23 0.10 0.15 0.51 0.73 0.58 0.85 1.20 0.29 0.13 0.15 0.26 0.18 0.27 0.02 0.01 0.03 0.05 0.08
1.85 1.90 2.02 2.09 2.13 2.07 1.93 1.76 1.60 1.36 1.17 1.22 1.21 1.40 1.77 2.16 2.54 1.43 0.72 1.01 3.26 6.72 5.87 1.05 0.04 0.07 0.09 0.07 0.06 0.07 0.29 0.68 0.78 0.80 1.00 1.11 0.35 0.27 0.27 0.06 0.06 0.21 0.13 0.10 0.13 0.26 0.35
1.88 1.95 2.04 1.93 1.93 1.96 1.96 2.02 2.05 1.99 2.00 1.93 1.88 1.89 1.77 1.58 2.06 1.64 1.67 2.83 6.52 7.13 2.33 0.49 0.08 0.09 0.12 0.11 0.12 0.08 0.39 0.88 1.30 1.72 1.38 0.76 0.46 0.30 0.28 0.26 0.11 0.31 0.79 1.17 0.93 0.84 0.73
1.89 1.75 1.68 1.75 1.77 1.72 1.79 1.89 1.99 2.17 2.40 2.52 2.55 2.64 2.40 2.05 1.65 2.23 3.69 5.79 7.25 3.21 1.05 0.18 0.02 0.02 0.15 0.28 0.36 0.32 0.54 1.01 0.98 1.14 1.03 0.66 0.49 0.35 0.38 0.50 0.29 0.40 0.85 1.90 1.64 0.58 0.27
2.17 1.95 1.76 1.59 1.44 1.48 1.62 1.76 1.91 2.13 2.40 2.64 3.10 3.49 3.67 3.30 2.40 3.00 4.95 8.07 4.85 1.42 0.48 0.22 0.07 0.13 0.12 0.24 0.55 0.64 0.65 0.92 1.26 1.33 1.68 1.19 0.69 0.22 0.21 0.15 0.21 0.56 1.12 0.93 1.31 0.69 0.49
2.60 2.32 1.99 1.77 1.51 1.39 1.42 1.46 1.61 1.82 2.05 2.43 3.03 3.64 3.29 2.63 3.12 4.80 6.67 5.65 2.48 0.61 0.15 0.13 0.30 0.32 0.17 0.13 0.38 0.66 1.14 1.14 0.84 1.03 1.57 1.41 1.03 0.22 0.21 0.36 0.73 1.13 1.12 1.60 2.86 2.80 1.44
3.04 2.64 2.25 2.03 1.89 1.72 1.62 1.50 1.72 1.90 1.94 2.58 3.41 4.22 2.59 2.44 5.20 8.38 8.02 3.90 1.29 0.28 0.12 0.26 0.32 0.37 0.22 0.29 0.33 0.61 1.08 1.08 0.69 0.65 0.91 1.68 1.93 0.59 0.67 1.18 1.16 1.84 2.24 2.72 3.14 2.30 1.72
2.83 3.07 2.58 2.09 2.01 1.94 2.04 1.84 1.80 1.82 2.47 3.99 4.61 4.58 2.32 2.86 6.41 7.40 4.90 2.00 0.75 0.16 0.08 0.21 0.26 0.43 0.36 0.22 0.31 0.54 0.88 0.74 0.40 0.41 0.62 1.20 2.04 0.87 0.46 0.85 0.64 0.75 1.43 2.04 3.63 2.82 1.67
2.64 2.83 3.31 2.66 2.13 2.04 2.16 2.34 2.01 1.89 2.84 4.32 6.01 4.18 3.92 4.22 5.14 3.68 2.00 1.25 0.66 0.28 0.20 0.29 0.36 0.36 0.49 0.28 0.52 0.29 0.39 0.22 0.12 0.32 0.75 0.93 1.98 1.86 0.82 1.10 1.50 1.76 1.88 2.05 2.47 2.30 1.72
2.86 2.77 2.77 3.24 2.66 2.36 2.45 2.36 2.46 2.63 3.25 4.54 6.38 6.58 7.07 7.64 3.65 1.78 1.66 1.53 1.12 0.43 0.29 0.30 0.42 0.37 0.46 0.69 0.68 0.46 0.24 0.25 0.12 0.18 0.42 1.15 1.81 1.67 1.66 1.39 1.63 1.81 1.39 1.49 2.14 2.74 1.61
2.83 2.85 2.89 3.09 3.35 2.85 2.65 2.89 3.00 3.48 4.42 7.06 8.05 4.96 3.27 4.71 3.83 1.86 1.27 1.32 0.88 0.71 0.42 0.38 0.53 0.39 0.59 0.79 0.68 0.75 0.59 0.27 0.22 0.21 0.32 1.04 1.97 1.37 0.94 0.44 0.40 0.61 0.82 0.86 1.48 1.31 1.35
2.81 2.87 3.00 3.18 3.80 3.85 3.77 3.64 3.86 4.14 5.39 8.72 7.72 3.63 1.88 1.04 0.75 1.34 1.47 1.31 0.80 0.57 0.68 0.69 0.70 0.39 0.44 0.86 0.82 0.77 0.89 1.04 0.63 0.51 0.75 1.18 1.60 0.85 0.68 0.30 0.37 0.58 0.74 0.78 0.81 0.65 0.47
3.15 3.18 3.05 3.27 3.80 4.21 4.71 4.22 3.93 4.33 7.00 10.16 5.04 1.63 2.34 2.04 1.29 1.88 1.43 0.83 0.54 0.41 0.43 0.35 0.49 0.62 0.61 0.52 0.55 0.67 0.67 1.00 1.39 1.17 1.06 1.29 1.76 1.68 1.29 0.37 0.82 1.75 0.79 0.71 1.36 0.77 0.77
3.47 3.54 3.34 3.44 3.61 3.89 3.94 3.85 3.65 4.30 5.72 6.00 2.69 1.75 3.28 3.13 1.34 1.02 0.66 0.52 0.42 0.41 0.62 0.28 0.30 0.59 0.57 0.28 0.56 0.89 0.84 0.87 0.84 0.99 1.25 1.25 1.47 2.22 1.74 1.00 2.35 1.08 0.19 0.21 0.70 1.17 0.95
2.99 2.83 2.83 2.83 3.01 3.31 3.80 3.44 3.38 4.12 4.55 4.08 2.54 2.66 3.33 2.95 1.34 0.80 0.69 0.79 0.69 0.56 0.63 0.62 0.43 0.42 0.60 0.78 2.05 2.42 2.11 1.84 1.32 0.73 0.64 1.09 1.46 2.50 2.16 1.36 0.84 0.45 0.22 0.11 0.23 0.62 0.36
2.71 2.71 2.73 2.63 2.57 2.50 2.98 3.52 2.87 3.47 4.21 3.92 2.97 2.84 3.66 3.52 1.73 0.76 0.85 0.78 1.13 1.28 1.35 1.03 0.63 0.61 1.31 2.66 3.48 2.92 1.86 1.37 1.24 1.02 0.75 0.71 1.21 2.05 2.02 1.93 1.09 0.54 0.08 0.03 0.20 0.94 0.50
1.90 2.16 2.30 2.38 2.45 2.20 2.11 2.99 2.87 2.82 4.01 4.30 3.29 2.55 3.89 4.46 1.54 1.09 1.11 1.05 1.17 1.28 1.86 1.50 1.49 1.90 2.53 3.96 3.54 1.95 1.25 0.81 1.12 1.14 1.19 1.58 2.12 2.64 1.87 1.66 0.78 0.22 0.07 0.14 0.95 1.37 0.67
1.55 1.46 2.01 2.45 2.30 2.11 2.03 2.37 2.44 2.53 3.19 4.59 4.42 2.85 3.66 4.22 1.89 1.07 1.02 0.76 1.09 1.48 2.25 2.00 2.39 2.65 3.42 3.89 3.14 2.40 1.47 1.04 0.86 0.76 0.89 1.34 2.16 2.40 2.53 2.72 1.50 0.25 0.23 0.62 0.67 0.38 0.89
1.52 1.39 1.46 1.64 1.97 2.00 1.95 2.12 2.26 2.19 2.67 3.97 5.52 3.81 3.32 5.37 3.14 1.02 0.84 0.67 0.48 0.80 1.35 2.31 2.37 1.82 2.42 3.01 2.68 2.18 1.91 1.53 1.01 1.06 1.07 1.37 1.52 1.63 1.75 1.67 0.78 0.31 0.34 0.36 0.34 0.58 1.07